STARLINK-1221, 45227

Orbit data source: Space-Track

STARLINK-1221, 45227 is a payload satellite owned by SpaceX/Seattle (US) in LEO that was launched on Mon, 17 Feb 2020 UTC via an FALCON 9 launch vehicle from the Air Force Eastern Test Range (AFETR). Payload-class satellites include a variety of spacecraft equipped with specific instruments for various scientific and technological missions. These include communications satellites like Starlink; space stations such as the ISS; scientific satellites like the Hubble; Earth observation satellites from companies like Planet Labs, Umbra, and HawkEye 360; GPS; miniature CubeSats for education and research; and military/defense satellites.

Loading next visibility...
Identifier
45227, 2020-012BB
Orbit
LEO
Country
Flag of USUS
Related business
Manufacturer
SpaceX/Seattle
Mission
Partially operational Commercial Communications
Bus & Motor
STARLINK, Unknown motor
Mass
260 kg wet, ~248 kg dry
Launch date (UTC)
2020-02-17 (6 years ago)
Launch vehicle
FALCON 9
Launch site
Air Force Eastern Test Range (AFETR)
Object type
Payload
Rocket body
Debris
Shape & HBR
Box + 1 Pan, 10.1 m
Radar Cross Section
13.562 m², Large (>1 m²)

Expand to show TLE details & history
Last TLE update: 1 day ago

TLE from 1 day ago
0 STARLINK-1221
1 45227U 20012BB  26123.97071059  .00015810  00000-0  35215-3 0  9991
2 45227  53.0656   7.2611 0003259 146.1774 213.9440 15.43801787345248
Epoch: 2026-05-03T23:17Z
TLE epoch observation values (Epoch: 2026-05-03T23:17:49.394Z)
Latitude
-0.00003°
Longitude
155.93865°
Altitude
437.638 km
Speed
7.649 km/s
True Right ascension
00h 29m 02s
True Declination
0° 00' 00"
Sunlit
Object was in daylight at epoch
Visualization orbit readout
Latitude
Unknown
Longitude
Unknown
Altitude
Unknown
Speed
Unknown
Apparent Right ascension
Unknown
Apparent Declination
Unknown
Sunlit
N/A
Visualization observer readout
Local Sidereal Time
06:43:26
Azimuth
Unknown
Elevation
Unknown
Doppler factor
Unknown
Orbital elements
Apogee altitude
437.395 km
Perigee altitude
432.954 km
Semi-major axis
6,813.311 km
Eccentricity
0.00033
Inclination
53.0656°
RAAN
7.2611°
Arg. of periapsis
146.1774°
True anomaly
213.92315°
Mean anomaly
213.944°
Eccentric anomaly
213.93358°
Mean motion
3.85928 °/min
Orbital period
93.28 mins
BSTAR
0.00035215
Loading maneuver chart data...
Computing Atmospheric mass density...
Loading historical data...
Loading historical data...
Loading historical data...
Loading historical data...
Loading historical data...
Loading historical data...
Loading historical data...

Documentation

Showing up to 5 results
|